Volver al catálogo

FENGYUN 1C DEB

ActivoSSO
NORAD 38513·DEBRIS·🇨🇳 China

Lanzado May 10, 1999 desde Taiyuan Satellite Launch Center

Loading…

Próximos Pases (próximas 24 horas)

TLE

ActualizadoSource: Space-Track

Época: Sep 13, 2026, 12:27 UTC

1 38513U 99025ESY 26256.51915668  .00007902  00000-0  61520-3 0  9992
2 38513  97.6005 149.2370 0227891  66.2128 296.2801 14.83164700677214

Sigue FENGYUN 1C DEB en tiempo real con AllMySat

Download on the App Store